[TLELIST] Archives

 

[TLELIST] Current TLEs

October 14th 2024 PDT

HST 1 20580U 90037B 24287.66313969 .00013037 00000-0 57541-3 0 9999 2 20580 28.4685 270.0884 0002664 246.4656 113.5658 15.20217340695060 ISS (ZARYA) 1 25544U 98067A 24288.38439782 -.00274092 00000-0 -49859-2 0 9991 2 25544 51.6375 85.0013 0009245 75.5296 8.7941 15.49814641477033 CXO 1 25867U 99040B 24289.50546092 .00001055 00000-0 00000-0 0 9997 2 25867 43.7893 144.2087 8763523 302.6146 0.5675 0.37807096 15016 ...Continue Reading

[TLELIST] Current TLEs

October 14th 2024 PDT

HST 1 20580U 90037B 24287.66313969 .00013037 00000-0 57541-3 0 9999 2 20580 28.4685 270.0884 0002664 246.4656 113.5658 15.20217340695060 ISS (ZARYA) 1 25544U 98067A 24288.38439782 -.00274092 00000-0 -49859-2 0 9991 2 25544 51.6375 85.0013 0009245 75.5296 8.7941 15.49814641477033 CXO 1 25867U 99040B 24289.50546092 .00001055 00000-0 00000-0 0 9997 2 25867 43.7893 144.2087 8763523 302.6146 0.5675 0.37807096 15016 ...Continue Reading

[TLELIST] Current TLEs

October 13th 2024 PDT

HST 1 20580U 90037B 24286.67840186 .00013744 00000-0 60742-3 0 9997 2 20580 28.4685 276.7116 0002683 234.4617 125.5726 15.20195098694913 ISS (ZARYA) 1 25544U 98067A 24286.82176872 .00028824 00000-0 51475-3 0 9992 2 25544 51.6380 92.7424 0009179 63.7262 296.4669 15.49763544476798 CXO 1 25867U 99040B 24289.50546092 .00001055 00000-0 00000-0 0 9997 2 25867 43.7893 144.2087 8763523 302.6146 0.5675 0.37807096 15016 ...Continue Reading

[TLELIST] Current TLEs

October 12th 2024 PDT

HST 1 20580U 90037B 24286.15320224 .00018111 00000-0 80312-3 0 9994 2 20580 28.4686 280.2439 0002703 229.5338 130.5020 15.20183039695095 ISS (ZARYA) 1 25544U 98067A 24286.17692722 .00031145 00000-0 55599-3 0 9998 2 25544 51.6377 95.9360 0009253 61.6494 298.5427 15.49732338476696 CXO 1 25867U 99040B 24286.86180913 .00001176 00000-0 00000-0 0 9993 2 25867 43.7215 144.4103 8764486 302.5151 0.6012 0.37805863 15004 ...Continue Reading

[TLELIST] Current TLEs

October 12th 2024 PDT

HST 1 20580U 90037B 24286.15320224 .00018111 00000-0 80312-3 0 9994 2 20580 28.4686 280.2439 0002703 229.5338 130.5020 15.20183039695095 ISS (ZARYA) 1 25544U 98067A 24286.17692722 .00031145 00000-0 55599-3 0 9998 2 25544 51.6377 95.9360 0009253 61.6494 298.5427 15.49732338476696 CXO 1 25867U 99040B 24286.86180913 .00001176 00000-0 00000-0 0 9993 2 25867 43.7215 144.4103 8764486 302.5151 0.6012 0.37805863 15004 ...Continue Reading

[TLELIST] Current TLEs

October 11th 2024 PDT

HST 1 20580U 90037B 24285.16843810 .00051805 00000-0 23038-2 0 9993 2 20580 28.4689 286.8665 0002783 218.9529 141.0863 15.20177920694940 ISS (ZARYA) 1 25544U 98067A 24285.20963619 .00088662 00000-0 15590-2 0 9999 2 25544 51.6375 100.7254 0009189 58.4718 301.7167 15.49687368476546 CXO 1 25867U 99040B 24286.86180913 .00001176 00000-0 00000-0 0 9993 2 25867 43.7215 144.4103 8764486 302.5151 0.6012 0.37805863 15004 ...Continue Reading

[TLELIST] [TLELIST] Current TLEs

October 11th 2024 PDT

HST 1 20580U 90037B 24285.16843810 .00051805 00000-0 23038-2 0 9993 2 20580 28.4689 286.8665 0002783 218.9529 141.0863 15.20177920694940 ISS (ZARYA) 1 25544U 98067A 24285.20963619 .00088662 00000-0 15590-2 0 9999 2 25544 51.6375 100.7254 0009189 58.4718 301.7167 15.49687368476546 CXO 1 25867U 99040B 24286.86180913 .00001176 00000-0 00000-0 0 9993 2 25867 43.7215 144.4103 8764486 302.5151 0.6012 0.37805863 15004 ...Continue Reading

[TLELIST] Current TLEs

October 10th 2024 PDT

HST 1 20580U 90037B 24283.72407024 .00013930 00000-0 61767-3 0 9995 2 20580 28.4692 296.5786 0002891 202.7082 157.3384 15.20089484694463 ISS (ZARYA) 1 25544U 98067A 24284.27308581 -.00006202 00000-0 -10212-3 0 9995 2 25544 51.6400 105.3624 0008963 56.1479 115.9340 15.49562618476396 CXO 1 25867U 99040B 24284.21733196 .00001167 00000-0 00000-0 0 9997 2 25867 43.6539 144.5911 8767549 302.4286 0.5197 0.37806327 14997 ...Continue Reading

[TLELIST] Current TLEs

October 10th 2024 PDT

HST 1 20580U 90037B 24283.72407024 .00013930 00000-0 61767-3 0 9995 2 20580 28.4692 296.5786 0002891 202.7082 157.3384 15.20089484694463 ISS (ZARYA) 1 25544U 98067A 24284.27308581 -.00006202 00000-0 -10212-3 0 9995 2 25544 51.6400 105.3624 0008963 56.1479 115.9340 15.49562618476396 CXO 1 25867U 99040B 24284.21733196 .00001167 00000-0 00000-0 0 9997 2 25867 43.6539 144.5911 8767549 302.4286 0.5197 0.37806327 14997 ...Continue Reading

[TLELIST] Current TLEs

October 9th 2024 PDT

HST 1 20580U 90037B 24283.13317996 .00019260 00000-0 85723-3 0 9998 2 20580 28.4693 300.5520 0002918 196.3711 163.6788 15.20075282694631 ISS (ZARYA) 1 25544U 98067A 24283.24020010 .00006615 00000-0 12586-3 0 9991 2 25544 51.6360 110.4759 0008797 52.7655 113.6830 15.49501009476239 CXO 1 25867U 99040B 24284.21733196 .00001167 00000-0 00000-0 0 9997 2 25867 43.6539 144.5911 8767549 302.4286 0.5197 0.37806327 14997 ...Continue Reading
  • This mailing list is a public mailing list - anyone may join or leave, at any time.
  • This mailing list is announce-only.

International Space Station (ISS) / Hubble Space Telescope (HST) / Chandra X-Ray Observatory Orbital Data via EMAIL

Privacy Policy:

Private list